Regional Weather Roundup
Issued by NWS Jackson, KY

Home | Current Version | Previous Version | Graphics & Text | Print | Product List | Glossary On
Versions: 1 2 3 4 5 6 7 8 9 10 11 12 13 14 15 16 17 18 19 20 21 22 23 24 25 26 27
000
ASUS43 KJKL 220610
RWRJKL

EAST KENTUCKY HOURLY WEATHER ROUNDUP
NATIONAL WEATHER SERVICE JACKSON KY
200 AM EDT MON MAY 22 2017

NOTE: "FAIR" INDICATES FEW OR NO CLOUDS BELOW 12,000 FEET WITH
NO SIGNIFICANT WEATHER AND/OR OBSTRUCTIONS TO VISIBILITY.

* THESE REPORTS ARE NOT UNDER NWS QUALITY CONTROL AND MAY NOT
  REPORT WEATHER SUCH AS PRECIPITATION AND FOG.

KYZ079-080-083-085-087-088-110-112-115-119-120-220700
...EASTERN KENTUCKY...

CITY           SKY/WX    TMP DP  RH WIND       PRES   REMARKS
JACKSON        CLOUDY    65  63  93 CALM      30.06F
6HR MIN TEMP:  65; 6HR MAX TEMP:  71; 6HR PCP: TRACE;

LONDON         LGT RAIN  65  63  93 CALM      30.08R
6HR MIN TEMP:  65; 6HR MAX TEMP:  71; 6HR PCP:  1.22;

SOMERSET*      CLOUDY    63  63 100 CALM      30.09S FOG
WILLIAMSBURG*  CLOUDY    63  63 100 CALM      30.09S
MIDDLESBORO*   CLOUDY    64  64 100 S3        30.09S
6HR MIN TEMP:  64; 6HR MAX TEMP:  72;

HARLAN APT*    CLOUDY    64  61  88 CALM      30.09F
PIKE CO APT*   CLOUDY    64  64 100 CALM      30.07S
BIG SANDY APT* PTCLDY    65  64  97 CALM      30.06F
6HR MIN TEMP:  65; 6HR MAX TEMP:  71;

MOREHEAD APT*  CLOUDY    64  63  94 SW6       30.07S
ASHLAND*       CLOUDY   N/A N/A N/A CALM      29.99F
$$

KYZ035-036-041-042-044-050-067-078-099-220700
...CENTRAL KENTUCKY...

CITY           SKY/WX    TMP DP  RH WIND       PRES   REMARKS
MT STERLING*   MOCLDY    63  63 100 W3        30.07F
FLEMING/MASON* PTCLDY    62  62  99 W5        30.06R
DANVILLE*      CLOUDY    63  55  77 NW7       30.10R
LEXINGTON      CLOUDY    61  54  77 NW6       30.07R
6HR MIN TEMP:  61; 6HR MAX TEMP:  68; 6HR PCP:  0.02;

FRANKFORT      PTCLDY    61  54  77 NW5       30.06R
6HR MIN TEMP:  59; 6HR MAX TEMP:  71; 6HR PCP: TRACE;

LOUISVILLE     CLOUDY    63  53  70 N12       30.09R
6HR MIN TEMP:  63; 6HR MAX TEMP:  76;

LEBANON*         N/A     63  55  77 W3        30.09R
GLASGOW*       PTCLDY    60  55  81 CALM      30.09S
BOWLING GREEN  PTCLDY    65  55  70 VRB3      30.10R
6HR MIN TEMP:  65; 6HR MAX TEMP:  78;

$$

KYZ091>093-OHZ055-061-077-WVZ005-015-034-035-042-220700
...SOUTHERN OHIO/WEST VIRGINIA...

CITY           SKY/WX    TMP DP  RH WIND       PRES   REMARKS
COVINGTON      PTCLDY    60  52  74 NW14      30.07R
COLUMBUS       CLOUDY    64  60  87 NW9       30.00S
DAYTON         PTCLDY    57  51  80 NW10      30.06R
WILMINGTON     CLEAR     60  55  83 NW8       30.04R
HUNTINGTON     LGT RAIN  67  63  87 S8        30.01F
CHARLESTON     CLOUDY    64  62  93 SE3       30.03F
PINEVILLE*     FOG       59  58  97 MISG      30.15R VSB 1/2
BECKLEY        PTCLDY    59  57  93 SE10      30.11S
BLUEFIELD      CLOUDY    59  56  89 CALM      30.14R
LOGAN CO APT*  MOCLDY    64  61  88 CALM      30.06F
$$

VAZ002-007-008-TNZ017-027-036-066-071-220700
...SOUTHWEST VIRGINIA/EAST TENNESSEE...

CITY           SKY/WX    TMP DP  RH WIND       PRES   REMARKS
JONESVILLE*      N/A     61  61 100 CALM      30.11F
ABINGDON*      CLOUDY    63  63  99 NE3       30.12R
BRISTOL        CLOUDY    61  60  97 CALM      30.10S FOG
MORRISTOWN*    CLOUDY    64  64 100 CALM      30.07F
SEVIERVILLE*   CLOUDY    64  63  94 CALM      30.06F
KNOXVILLE      PTCLDY    69  65  86 CALM      30.06S
LAFOLLETTE*    MOCLDY    66  64  94 E3        30.10F
OAK RIDGE      CLOUDY    68  65  90 CALM      30.07F
CROSSVILLE     CLOUDY    63  61  93 CALM      30.12F
NASHVILLE      CLOUDY    68  55  63 N6        30.09R
$$

...KEY TO REMARKS...
VSB - VISIBILITY IN MILES
WCI - WIND CHILL INDEX
HX  - HEAT INDEX

$$




USA.gov is the U.S. government's official web portal to all federal, state and local government web resources and services.